WXM80 ListenWXM80 Stop

You find our weather info also at:

UK Metoffice

WeatherCloud

Weather Underground

Northeastern Weather Network

AWEKAS

Citizen Weather Observer Program (CWOP)

HAMweather, WeatherForYou, PWS Weather


Weather Underground History page Text

Daily Summary for February 14, 2017 Units:  English    Metric   Both
« Previous Day
Next Day »
Daily Weekly Monthly Yearly Custom
  High: Low: Average:
Temperature: 39.6 °F 27.8 °F 33 °F
Dew Point: 32.8 °F 20.7 °F 24.7 °F
Humidity: 90 % 55 % 72 %
Wind Speed: 7.7 mph 0.0 mph 2.8 mph
Wind Gust: 10.4 mph - -
Wind:- - WSW
Pressure: 29.96 in 29.70 in -
Precipitation: 0.00 in    
Historical Graphs
 
 
Tabular Data for February 14, 2017
Time Temperature Dew Point Pressure Wind Wind Speed Wind Gust Humidity Rainfall Rate (Hourly)
00:03 29.6 °F 21.7 °F 29.93 in NNW 3.9 mph 8.0 mph 72 % 0.00 in
00:08 29.5 °F 21.3 °F 29.94 in NNW 4.1 mph 9.2 mph 71 % 0.00 in
00:13 29.5 °F 21.6 °F 29.94 in NNW 1.7 mph 5.0 mph 72 % 0.00 in
00:18 29.4 °F 21.5 °F 29.94 in NNW 3.7 mph 6.9 mph 72 % 0.00 in
00:23 29.4 °F 21.2 °F 29.94 in North 3.5 mph 4.0 mph 71 % 0.00 in
00:28 29.4 °F 21.5 °F 29.94 in NNW 2.6 mph 9.2 mph 72 % 0.00 in
00:33 29.3 °F 21.4 °F 29.94 in NNW 3.0 mph 9.0 mph 72 % 0.00 in
00:38 29.3 °F 21.4 °F 29.94 in NNW 2.0 mph 7.0 mph 72 % 0.00 in
00:43 29.3 °F 21.4 °F 29.94 in NNW 3.0 mph 7.0 mph 72 % 0.00 in
00:48 29.2 °F 21.3 °F 29.93 in NNW 2.0 mph 8.0 mph 72 % 0.00 in
00:53 29.2 °F 21.3 °F 29.93 in North 3.0 mph 6.0 mph 72 % 0.00 in
00:58 29.1 °F 21.2 °F 29.93 in North 1.8 mph 3.5 mph 72 % 0.00 in
01:03 29.1 °F 21.5 °F 29.93 in North 3.2 mph 6.0 mph 73 % 0.00 in
01:08 29.0 °F 21.4 °F 29.93 in North 2.0 mph 7.0 mph 73 % 0.00 in
01:13 28.9 °F 21.3 °F 29.92 in North 5.3 mph 6.9 mph 73 % 0.00 in
01:18 28.9 °F 21.3 °F 29.92 in North 3.0 mph 9.0 mph 73 % 0.00 in
01:23 28.9 °F 21.3 °F 29.93 in North 6.0 mph 10.0 mph 73 % 0.00 in
01:28 28.9 °F 21.3 °F 29.93 in North 2.0 mph 7.0 mph 73 % 0.00 in
01:33 28.9 °F 21.3 °F 29.93 in North 3.0 mph 8.0 mph 73 % 0.00 in
01:38 28.9 °F 21.3 °F 29.93 in North 2.0 mph 8.0 mph 73 % 0.00 in
01:43 28.9 °F 21.3 °F 29.93 in NE 4.0 mph 6.0 mph 73 % 0.00 in
01:48 28.9 °F 21.4 °F 29.93 in North 3.0 mph 6.0 mph 73 % 0.00 in
01:53 29.0 °F 21.4 °F 29.93 in NNW 5.0 mph 9.0 mph 73 % 0.00 in
01:58 29.0 °F 21.4 °F 29.93 in North 3.8 mph 6.0 mph 73 % 0.00 in
02:03 29.0 °F 21.4 °F 29.93 in NNW 0.8 mph 4.6 mph 73 % 0.00 in
02:08 29.0 °F 21.4 °F 29.93 in NW 0.2 mph 2.3 mph 73 % 0.00 in
02:14 28.9 °F 21.3 °F 29.93 in NNW 4.6 mph 5.8 mph 73 % 0.00 in
02:19 28.9 °F 21.3 °F 29.93 in North 2.9 mph 5.8 mph 73 % 0.00 in
02:24 28.9 °F 21.3 °F 29.94 in North 2.9 mph 5.8 mph 73 % 0.00 in
02:29 29.0 °F 21.7 °F 29.94 in North 3.5 mph 5.8 mph 74 % 0.00 in
02:34 29.0 °F 21.4 °F 29.94 in NNW 4.1 mph 6.9 mph 73 % 0.00 in
02:39 29.0 °F 21.4 °F 29.94 in North 3.1 mph 8.0 mph 73 % 0.00 in
02:44 28.9 °F 21.3 °F 29.93 in NNW 2.3 mph 6.0 mph 73 % 0.00 in
02:49 28.9 °F 21.3 °F 29.94 in North 2.3 mph 4.6 mph 73 % 0.00 in
02:54 28.8 °F 21.6 °F 29.93 in NNE 3.9 mph 3.9 mph 74 % 0.00 in
02:59 28.8 °F 21.6 °F 29.93 in North 4.4 mph 8.0 mph 74 % 0.00 in
03:04 28.8 °F 21.2 °F 29.93 in NNE 2.5 mph 6.9 mph 73 % 0.00 in
03:09 28.7 °F 21.5 °F 29.93 in North 4.0 mph 8.1 mph 74 % 0.00 in
03:14 28.7 °F 21.5 °F 29.92 in NNE 6.2 mph 9.0 mph 74 % 0.00 in
03:19 28.6 °F 21.0 °F 29.93 in NNE 6.4 mph 9.2 mph 73 % 0.00 in
03:24 28.5 °F 21.3 °F 29.93 in North 2.8 mph 8.1 mph 74 % 0.00 in
03:29 28.5 °F 21.3 °F 29.93 in North 5.5 mph 8.1 mph 74 % 0.00 in
03:34 28.5 °F 21.3 °F 29.93 in NNE 4.3 mph 6.9 mph 74 % 0.00 in
03:39 28.4 °F 21.2 °F 29.93 in NNE 5.1 mph 10.4 mph 74 % 0.00 in
03:44 28.4 °F 21.2 °F 29.93 in NNE 7.7 mph 10.4 mph 74 % 0.00 in
03:50 28.5 °F 20.9 °F 29.93 in North 2.6 mph 4.6 mph 73 % 0.00 in
03:55 28.5 °F 21.3 °F 29.93 in NNW 2.0 mph 4.6 mph 74 % 0.00 in
04:00 28.5 °F 21.3 °F 29.93 in North 4.9 mph 8.1 mph 74 % 0.00 in
04:05 28.4 °F 21.2 °F 29.93 in NNW 3.4 mph 6.9 mph 74 % 0.00 in
04:10 28.3 °F 21.1 °F 29.92 in North 3.6 mph 8.1 mph 74 % 0.00 in
04:15 28.3 °F 21.1 °F 29.93 in NNE 3.7 mph 4.6 mph 74 % 0.00 in
04:20 28.3 °F 21.1 °F 29.93 in NNW 3.6 mph 4.6 mph 74 % 0.00 in
04:25 28.3 °F 21.1 °F 29.93 in North 1.4 mph 4.0 mph 74 % 0.00 in
04:30 28.2 °F 21.0 °F 29.93 in NNE 2.0 mph 4.0 mph 74 % 0.00 in
04:35 28.2 °F 21.3 °F 29.92 in NNE 3.2 mph 5.8 mph 75 % 0.00 in
04:40 28.1 °F 21.2 °F 29.92 in North 5.0 mph 9.2 mph 75 % 0.00 in
04:45 28.1 °F 20.9 °F 29.93 in North 2.4 mph 5.8 mph 74 % 0.00 in
04:50 28.1 °F 20.9 °F 29.93 in NNE 3.2 mph 4.6 mph 74 % 0.00 in
04:55 28.1 °F 20.9 °F 29.94 in North 3.5 mph 6.9 mph 74 % 0.00 in
05:01 28.0 °F 20.8 °F 29.94 in NW 2.3 mph 3.5 mph 74 % 0.00 in
05:06 28.0 °F 21.1 °F 29.93 in North 2.6 mph 5.0 mph 75 % 0.00 in
05:11 27.9 °F 20.7 °F 29.94 in NNW 0.6 mph 2.3 mph 74 % 0.00 in
05:16 27.9 °F 21.0 °F 29.94 in NNW 2.1 mph 3.5 mph 75 % 0.00 in
05:21 27.9 °F 21.0 °F 29.94 in NW 1.9 mph 5.8 mph 75 % 0.00 in
05:26 27.9 °F 21.0 °F 29.94 in WNW 2.9 mph 4.0 mph 75 % 0.00 in
05:31 27.8 °F 20.9 °F 29.94 in North 1.4 mph 3.5 mph 75 % 0.00 in
05:36 27.8 °F 20.9 °F 29.94 in NNW 3.1 mph 3.5 mph 75 % 0.00 in
05:41 27.8 °F 20.9 °F 29.93 in NNW 2.2 mph 3.5 mph 75 % 0.00 in
05:46 27.9 °F 21.0 °F 29.93 in Calm   4.6 mph 75 % 0.00 in
05:51 27.9 °F 21.0 °F 29.94 in NNW 2.2 mph 5.8 mph 75 % 0.00 in
05:56 27.8 °F 20.9 °F 29.94 in NNE 4.0 mph 6.9 mph 75 % 0.00 in
06:01 27.8 °F 20.9 °F 29.94 in NNW 2.1 mph 6.0 mph 75 % 0.00 in
06:06 27.8 °F 20.9 °F 29.94 in NNW 2.8 mph 3.5 mph 75 % 0.00 in
06:12 27.8 °F 20.9 °F 29.94 in NNW 1.0 mph 5.0 mph 75 % 0.00 in
06:17 27.9 °F 21.0 °F 29.94 in NNW 3.4 mph 4.6 mph 75 % 0.00 in
06:22 27.8 °F 20.9 °F 29.94 in North 2.7 mph 5.8 mph 75 % 0.00 in
06:27 27.8 °F 20.9 °F 29.94 in NNW 3.7 mph 4.6 mph 75 % 0.00 in
06:32 27.9 °F 21.0 °F 29.94 in NW 3.3 mph 6.0 mph 75 % 0.00 in
06:37 28.0 °F 21.4 °F 29.94 in NNW 3.4 mph 6.0 mph 76 % 0.00 in
06:42 28.0 °F 21.1 °F 29.95 in NW 0.3 mph 3.5 mph 75 % 0.00 in
06:47 28.1 °F 21.5 °F 29.94 in NNW 2.6 mph 4.6 mph 76 % 0.00 in
06:52 28.2 °F 21.6 °F 29.94 in NW 3.2 mph 4.6 mph 76 % 0.00 in
06:58 28.3 °F 21.7 °F 29.95 in NNE 2.9 mph 6.0 mph 76 % 0.00 in
07:03 28.3 °F 21.7 °F 29.95 in NNW 0.3 mph 2.3 mph 76 % 0.00 in
07:08 28.5 °F 21.9 °F 29.95 in NW 3.1 mph 4.6 mph 76 % 0.00 in
07:13 28.7 °F 22.1 °F 29.95 in North 2.4 mph 6.9 mph 76 % 0.00 in
07:18 28.8 °F 22.2 °F 29.95 in NNW 2.1 mph 4.0 mph 76 % 0.00 in
07:23 28.9 °F 22.0 °F 29.96 in NW 2.3 mph 3.5 mph 75 % 0.00 in
07:28 29.1 °F 22.5 °F 29.95 in NW 3.2 mph 7.0 mph 76 % 0.00 in
07:33 29.2 °F 22.3 °F 29.95 in NW 0.1 mph 2.3 mph 75 % 0.00 in
07:38 29.3 °F 22.4 °F 29.96 in NW 2.0 mph 3.5 mph 75 % 0.00 in
07:43 29.4 °F 22.5 °F 29.96 in North 2.0 mph 3.5 mph 75 % 0.00 in
07:48 29.6 °F 22.3 °F 29.96 in NW 3.0 mph 3.5 mph 74 % 0.00 in
07:53 29.6 °F 22.3 °F 29.96 in West 2.6 mph 3.5 mph 74 % 0.00 in
07:58 29.8 °F 22.2 °F 29.96 in Calm   3.5 mph 73 % 0.00 in
08:03 29.9 °F 22.6 °F 29.96 in Calm   1.2 mph 74 % 0.00 in
08:08 30.0 °F 22.7 °F 29.96 in WNW 0.9 mph 3.5 mph 74 % 0.00 in
08:13 30.1 °F 23.1 °F 29.96 in WNW 2.1 mph 6.0 mph 75 % 0.00 in
08:19 30.2 °F 22.9 °F 29.95 in WNW 2.7 mph 4.0 mph 74 % 0.00 in
08:24 30.2 °F 22.9 °F 29.96 in WNW 0.8 mph 3.5 mph 74 % 0.00 in
08:29 30.3 °F 23.0 °F 29.95 in West 1.9 mph 3.5 mph 74 % 0.00 in
08:34 30.4 °F 23.4 °F 29.96 in WNW 2.8 mph 3.5 mph 75 % 0.00 in
08:39 30.5 °F 23.5 °F 29.95 in WNW 3.0 mph 5.8 mph 75 % 0.00 in
08:44 30.7 °F 23.7 °F 29.95 in WNW 2.9 mph 3.5 mph 75 % 0.00 in
08:49 31.0 °F 24.0 °F 29.95 in West 2.6 mph 4.6 mph 75 % 0.00 in
08:54 31.2 °F 23.9 °F 29.95 in WNW 2.3 mph 4.6 mph 74 % 0.00 in
08:59 31.4 °F 23.7 °F 29.95 in NNW 3.7 mph 9.2 mph 73 % 0.00 in
09:04 31.6 °F 23.9 °F 29.93 in NW 0.3 mph 2.3 mph 73 % 0.00 in
09:10 31.7 °F 23.4 °F 29.93 in West 1.3 mph 3.5 mph 71 % 0.00 in
09:15 32.0 °F 23.7 °F 29.93 in Calm   3.5 mph 71 % 0.00 in
09:20 32.2 °F 23.8 °F 29.93 in NW 1.1 mph 3.5 mph 71 % 0.00 in
09:25 32.3 °F 23.6 °F 29.92 in WNW 3.5 mph 4.0 mph 70 % 0.00 in
09:30 32.5 °F 23.5 °F 29.93 in NW 0.8 mph 2.3 mph 69 % 0.00 in
09:35 32.6 °F 23.2 °F 29.92 in NW 2.3 mph 4.0 mph 68 % 0.00 in
09:40 32.6 °F 23.2 °F 29.92 in WNW 4.9 mph 5.8 mph 68 % 0.00 in
09:45 32.7 °F 23.3 °F 29.92 in WNW 1.7 mph 3.5 mph 68 % 0.00 in
09:50 32.8 °F 23.4 °F 29.92 in WNW 0.6 mph 3.5 mph 68 % 0.00 in
09:55 32.8 °F 23.4 °F 29.91 in West 3.1 mph 4.6 mph 68 % 0.00 in
10:00 32.9 °F 23.8 °F 29.91 in NW 1.7 mph 3.5 mph 69 % 0.00 in
10:05 33.1 °F 23.7 °F 29.91 in NW 2.2 mph 4.6 mph 68 % 0.00 in
10:10 33.2 °F 23.4 °F 29.91 in West 0.1 mph 1.2 mph 67 % 0.00 in
10:16 33.4 °F 23.3 °F 29.91 in West 2.9 mph 4.6 mph 66 % 0.00 in
10:21 33.6 °F 23.8 °F 29.91 in WNW 2.4 mph 5.8 mph 67 % 0.00 in
10:26 33.7 °F 23.2 °F 29.91 in SW 2.3 mph 4.6 mph 65 % 0.00 in
10:31 33.8 °F 23.3 °F 29.90 in SSW 2.6 mph 4.6 mph 65 % 0.00 in
10:36 33.9 °F 23.4 °F 29.90 in WSW 2.4 mph 3.5 mph 65 % 0.00 in
10:41 34.1 °F 23.6 °F 29.91 in WSW 2.2 mph 5.8 mph 65 % 0.00 in
10:46 34.1 °F 23.2 °F 29.90 in WNW 1.6 mph 3.5 mph 64 % 0.00 in
10:51 34.4 °F 23.5 °F 29.90 in WSW 5.0 mph 8.1 mph 64 % 0.00 in
10:56 34.5 °F 23.6 °F 29.90 in NW 2.4 mph 5.0 mph 64 % 0.00 in
11:01 34.4 °F 23.1 °F 29.90 in WNW 2.3 mph 4.6 mph 63 % 0.00 in
11:06 34.5 °F 23.2 °F 29.90 in West 1.1 mph 4.6 mph 63 % 0.00 in
11:07 34.5 °F 23.2 °F 29.90 in West 1.3 mph 3.5 mph 63 % 0.00 in
11:12 34.7 °F 23.4 °F 29.90 in West 2.0 mph 3.5 mph 63 % 0.00 in
11:17 34.8 °F 23.5 °F 29.90 in SW 3.6 mph 6.9 mph 63 % 0.00 in
11:22 34.9 °F 23.9 °F 29.89 in West 2.3 mph 3.5 mph 64 % 0.00 in
11:27 34.9 °F 23.6 °F 29.88 in West 5.6 mph 7.0 mph 63 % 0.00 in
11:32 34.7 °F 23.8 °F 29.88 in WSW 2.9 mph 5.8 mph 64 % 0.00 in
11:37 34.7 °F 23.8 °F 29.88 in SW 3.8 mph 6.9 mph 64 % 0.00 in
11:42 34.6 °F 23.3 °F 29.88 in West 2.8 mph 8.1 mph 63 % 0.00 in
11:47 34.6 °F 23.3 °F 29.87 in WSW 3.1 mph 5.0 mph 63 % 0.00 in
11:52 34.6 °F 23.7 °F 29.87 in WSW 2.2 mph 6.0 mph 64 % 0.00 in
11:57 34.4 °F 23.1 °F 29.87 in WNW 5.7 mph 8.1 mph 63 % 0.00 in
12:02 34.0 °F 23.1 °F 29.87 in WNW 2.3 mph 5.8 mph 64 % 0.00 in
12:08 33.7 °F 22.8 °F 29.86 in West 4.4 mph 6.0 mph 64 % 0.00 in
12:13 33.7 °F 23.5 °F 29.86 in WSW 4.3 mph 6.9 mph 66 % 0.00 in
12:18 34.1 °F 23.6 °F 29.85 in West 5.8 mph 8.0 mph 65 % 0.00 in
12:23 34.8 °F 24.2 °F 29.85 in WNW 2.9 mph 6.9 mph 65 % 0.00 in
12:28 35.3 °F 24.3 °F 29.84 in West 4.4 mph 6.9 mph 64 % 0.00 in
12:33 35.9 °F 24.1 °F 29.84 in West 2.3 mph 3.5 mph 62 % 0.00 in
12:38 36.1 °F 23.9 °F 29.84 in West 4.3 mph 5.8 mph 61 % 0.00 in
12:43 36.1 °F 23.9 °F 29.84 in West 3.0 mph 5.8 mph 61 % 0.00 in
12:48 36.2 °F 24.0 °F 29.83 in WNW 3.2 mph 6.9 mph 61 % 0.00 in
12:53 36.3 °F 23.7 °F 29.83 in WNW 4.2 mph 8.1 mph 60 % 0.00 in
12:58 36.4 °F 23.8 °F 29.83 in WSW 4.0 mph 9.2 mph 60 % 0.00 in
13:03 36.7 °F 23.7 °F 29.82 in WNW 3.8 mph 6.9 mph 59 % 0.00 in
13:08 37.0 °F 24.4 °F 29.82 in WNW 2.6 mph 7.0 mph 60 % 0.00 in
13:13 37.4 °F 24.0 °F 29.82 in WSW 6.0 mph 9.0 mph 58 % 0.00 in
13:18 37.7 °F 24.3 °F 29.82 in West 5.0 mph 8.0 mph 58 % 0.00 in
13:19 37.8 °F 24.3 °F 29.82 in West 3.2 mph 6.0 mph 58 % 0.00 in
13:24 38.1 °F 24.2 °F 29.81 in SW 2.2 mph 8.1 mph 57 % 0.00 in
13:29 38.2 °F 24.3 °F 29.81 in WSW 6.1 mph 9.0 mph 57 % 0.00 in
13:34 38.4 °F 24.5 °F 29.81 in WSW 3.4 mph 5.8 mph 57 % 0.00 in
13:39 38.6 °F 24.2 °F 29.81 in West 7.2 mph 10.4 mph 56 % 0.00 in
13:44 38.8 °F 24.4 °F 29.81 in WSW 7.2 mph 9.0 mph 56 % 0.00 in
13:49 38.7 °F 24.8 °F 29.81 in WSW 4.0 mph 10.4 mph 57 % 0.00 in
13:54 38.9 °F 24.5 °F 29.81 in SW 6.4 mph 8.1 mph 56 % 0.00 in
13:59 38.8 °F 24.9 °F 29.81 in WSW 4.8 mph 8.1 mph 57 % 0.00 in
14:04 38.9 °F 24.9 °F 29.81 in WSW 4.3 mph 6.0 mph 57 % 0.00 in
14:09 39.2 °F 24.8 °F 29.81 in NW 1.8 mph 4.6 mph 56 % 0.00 in
14:14 39.3 °F 24.5 °F 29.81 in WSW 4.5 mph 5.8 mph 55 % 0.00 in
14:19 39.4 °F 24.6 °F 29.80 in WNW 1.1 mph 6.9 mph 55 % 0.00 in
14:24 39.5 °F 24.7 °F 29.80 in NNW 2.2 mph 3.5 mph 55 % 0.00 in
14:29 39.6 °F 24.7 °F 29.79 in West 0.9 mph 4.6 mph 55 % 0.00 in
14:35 39.6 °F 24.7 °F 29.79 in WSW 4.9 mph 8.1 mph 55 % 0.00 in
14:40 39.3 °F 24.9 °F 29.79 in West 4.0 mph 5.8 mph 56 % 0.00 in
14:45 39.3 °F 24.9 °F 29.79 in West 0.7 mph 3.5 mph 56 % 0.00 in
14:50 39.3 °F 25.3 °F 29.78 in West 3.7 mph 7.0 mph 57 % 0.00 in
14:55 39.2 °F 24.8 °F 29.78 in SSW 3.9 mph 8.1 mph 56 % 0.00 in
15:00 38.9 °F 24.5 °F 29.78 in SW 2.5 mph 5.8 mph 56 % 0.00 in
15:05 38.9 °F 24.9 °F 29.78 in WSW 1.0 mph 2.3 mph 57 % 0.00 in
15:10 38.9 °F 24.9 °F 29.78 in SSW 3.7 mph 5.0 mph 57 % 0.00 in
15:15 38.8 °F 24.9 °F 29.78 in WSW 4.4 mph 9.2 mph 57 % 0.00 in
15:20 38.8 °F 25.3 °F 29.78 in SW 4.6 mph 8.1 mph 58 % 0.00 in
15:25 38.7 °F 25.2 °F 29.78 in SSW 0.2 mph 3.5 mph 58 % 0.00 in
15:30 38.6 °F 25.5 °F 29.77 in South 2.0 mph 3.5 mph 59 % 0.00 in
15:35 38.6 °F 25.1 °F 29.77 in SW 3.4 mph 4.6 mph 58 % 0.00 in
15:41 38.5 °F 25.4 °F 29.77 in SW 3.6 mph 8.1 mph 59 % 0.00 in
15:46 38.4 °F 25.7 °F 29.78 in WSW 7.3 mph 9.2 mph 60 % 0.00 in
15:51 38.4 °F 25.7 °F 29.78 in SW 1.4 mph 3.5 mph 60 % 0.00 in
15:56 38.4 °F 25.7 °F 29.78 in SSW 3.2 mph 5.8 mph 60 % 0.00 in
16:01 38.3 °F 25.6 °F 29.79 in SW 4.8 mph 6.9 mph 60 % 0.00 in
16:06 38.2 °F 25.9 °F 29.78 in SSW 3.3 mph 7.0 mph 61 % 0.00 in
16:11 38.2 °F 25.9 °F 29.76 in SW 4.0 mph 7.0 mph 61 % 0.00 in
16:16 38.1 °F 25.8 °F 29.77 in SSW 6.0 mph 8.1 mph 61 % 0.00 in
16:21 38.0 °F 26.1 °F 29.77 in West 1.6 mph 4.0 mph 62 % 0.00 in
16:26 37.9 °F 25.6 °F 29.77 in SW 5.7 mph 8.1 mph 61 % 0.00 in
16:31 37.9 °F 26.0 °F 29.77 in SW 5.3 mph 5.3 mph 62 % 0.00 in
16:36 37.8 °F 25.9 °F 29.77 in SSW 3.6 mph 8.1 mph 62 % 0.00 in
16:41 37.7 °F 26.2 °F 29.77 in South 1.4 mph 5.8 mph 63 % 0.00 in
16:46 37.6 °F 26.1 °F 29.77 in SW 3.0 mph 5.0 mph 63 % 0.00 in
16:52 37.5 °F 26.4 °F 29.76 in South 3.5 mph 7.0 mph 64 % 0.00 in
16:57 37.3 °F 26.2 °F 29.76 in SW 3.6 mph 4.6 mph 64 % 0.00 in
17:02 37.1 °F 26.0 °F 29.76 in South 2.2 mph 4.6 mph 64 % 0.00 in
17:07 37.0 °F 25.9 °F 29.76 in SW 4.6 mph 6.0 mph 64 % 0.00 in
17:12 36.8 °F 26.1 °F 29.77 in SW 2.9 mph 8.1 mph 65 % 0.00 in
17:17 36.6 °F 25.9 °F 29.77 in SW 2.3 mph 3.5 mph 65 % 0.00 in
17:22 36.5 °F 25.8 °F 29.76 in SW 1.4 mph 3.5 mph 65 % 0.00 in
17:27 36.3 °F 26.0 °F 29.76 in SW 0.7 mph 3.5 mph 66 % 0.00 in
17:32 36.1 °F 25.8 °F 29.76 in SSW 1.5 mph 4.6 mph 66 % 0.00 in
17:37 36.0 °F 25.7 °F 29.76 in SSW 2.2 mph 5.8 mph 66 % 0.00 in
17:42 35.8 °F 25.5 °F 29.76 in SSW 0.8 mph 3.5 mph 66 % 0.00 in
17:47 35.6 °F 25.7 °F 29.76 in South 4.0 mph 5.8 mph 67 % 0.00 in
17:52 35.4 °F 25.9 °F 29.77 in South 0.5 mph 3.5 mph 68 % 0.00 in
17:57 35.3 °F 25.8 °F 29.77 in South 1.8 mph 4.0 mph 68 % 0.00 in
18:03 35.2 °F 26.0 °F 29.77 in South 0.6 mph 3.0 mph 69 % 0.00 in
18:08 35.0 °F 26.2 °F 29.77 in Calm   2.0 mph 70 % 0.00 in
18:13 34.8 °F 26.4 °F 29.77 in Calm   1.2 mph 71 % 0.00 in
18:18 34.7 °F 26.3 °F 29.77 in SSE 0.3 mph 3.5 mph 71 % 0.00 in
18:23 34.6 °F 26.2 °F 29.77 in SSE 0.3 mph 1.2 mph 71 % 0.00 in
18:28 34.4 °F 26.3 °F 29.77 in South 0.3 mph 2.0 mph 72 % 0.00 in
18:33 34.3 °F 26.5 °F 29.78 in South 1.0 mph 3.5 mph 73 % 0.00 in
18:38 34.2 °F 26.4 °F 29.78 in South 0.2 mph 2.3 mph 73 % 0.00 in
18:43 34.0 °F 26.3 °F 29.78 in South 0.1 mph 1.2 mph 73 % 0.00 in
18:48 33.8 °F 26.4 °F 29.77 in South 1.7 mph 3.5 mph 74 % 0.00 in
18:53 33.7 °F 26.6 °F 29.77 in South 1.9 mph 3.5 mph 75 % 0.00 in
18:58 33.5 °F 26.7 °F 29.77 in South 2.5 mph 3.5 mph 76 % 0.00 in
19:03 33.5 °F 26.7 °F 29.78 in South 2.2 mph 3.5 mph 76 % 0.00 in
19:08 33.4 °F 27.0 °F 29.78 in South 2.4 mph 3.5 mph 77 % 0.00 in
19:13 33.2 °F 26.8 °F 29.77 in South 2.1 mph 3.5 mph 77 % 0.00 in
19:18 33.2 °F 27.0 °F 29.77 in South 2.0 mph 5.0 mph 78 % 0.00 in
19:23 33.0 °F 26.9 °F 29.77 in South 2.0 mph 4.0 mph 78 % 0.00 in
19:28 32.9 °F 27.1 °F 29.77 in South 1.0 mph 4.0 mph 79 % 0.00 in
19:33 32.8 °F 27.0 °F 29.77 in South 2.0 mph 5.0 mph 79 % 0.00 in
19:38 32.7 °F 27.3 °F 29.77 in South 1.0 mph 5.0 mph 80 % 0.00 in
19:43 32.7 °F 27.5 °F 29.77 in South 1.0 mph 5.0 mph 81 % 0.00 in
19:48 32.7 °F 27.8 °F 29.77 in South 1.0 mph 4.0 mph 82 % 0.00 in
19:53 32.8 °F 28.2 °F 29.77 in South 1.0 mph 4.0 mph 83 % 0.00 in
19:58 32.8 °F 28.5 °F 29.76 in South 2.4 mph 4.6 mph 84 % 0.00 in
20:03 32.9 °F 28.6 °F 29.76 in South 2.0 mph 5.0 mph 84 % 0.00 in
20:08 33.0 °F 29.0 °F 29.76 in SSW 2.0 mph 5.0 mph 85 % 0.00 in
20:13 33.2 °F 29.2 °F 29.76 in SSW 2.0 mph 4.0 mph 85 % 0.00 in
20:18 33.3 °F 29.6 °F 29.76 in SSW 3.0 mph 4.0 mph 86 % 0.00 in
20:23 33.4 °F 29.7 °F 29.76 in South 2.0 mph 4.0 mph 86 % 0.00 in
20:28 33.4 °F 29.7 °F 29.75 in South 1.0 mph 4.0 mph 86 % 0.00 in
20:33 33.5 °F 29.7 °F 29.75 in South 1.0 mph 4.0 mph 86 % 0.00 in
20:43 33.5 °F 30.0 °F 29.76 in SSW 1.0 mph 3.0 mph 87 % 0.00 in
20:48 33.6 °F 30.1 °F 29.76 in SSW 3.0 mph 7.0 mph 87 % 0.00 in
20:53 33.7 °F 30.5 °F 29.76 in South 3.1 mph 4.0 mph 88 % 0.00 in
20:58 33.9 °F 30.7 °F 29.76 in SSW 2.6 mph 4.6 mph 88 % 0.00 in
21:03 34.0 °F 30.8 °F 29.76 in South 3.6 mph 5.8 mph 88 % 0.00 in
21:08 34.1 °F 30.9 °F 29.75 in South 3.3 mph 5.8 mph 88 % 0.00 in
21:13 34.1 °F 30.9 °F 29.76 in SSW 2.5 mph 3.5 mph 88 % 0.00 in
21:18 34.2 °F 31.0 °F 29.76 in SSW 1.5 mph 3.5 mph 88 % 0.00 in
21:24 34.3 °F 31.1 °F 29.76 in South 2.5 mph 3.5 mph 88 % 0.00 in
21:29 34.3 °F 31.1 °F 29.76 in South 3.5 mph 6.9 mph 88 % 0.00 in
21:34 34.3 °F 31.1 °F 29.76 in SSW 2.2 mph 3.5 mph 88 % 0.00 in
21:39 34.4 °F 31.5 °F 29.76 in South 3.4 mph 6.9 mph 89 % 0.00 in
21:44 34.4 °F 31.5 °F 29.76 in SSW 3.4 mph 5.0 mph 89 % 0.00 in
21:49 34.5 °F 31.6 °F 29.75 in South 2.1 mph 4.0 mph 89 % 0.00 in
21:54 34.6 °F 31.7 °F 29.75 in South 1.9 mph 5.0 mph 89 % 0.00 in
21:59 34.7 °F 31.8 °F 29.75 in SSW 2.3 mph 3.5 mph 89 % 0.00 in
22:04 34.8 °F 32.2 °F 29.74 in SSW 2.8 mph 4.6 mph 90 % 0.00 in
22:09 34.9 °F 32.3 °F 29.74 in South 4.0 mph 8.1 mph 90 % 0.00 in
22:14 35.0 °F 32.4 °F 29.74 in South 4.0 mph 4.6 mph 90 % 0.00 in
22:19 35.1 °F 32.5 °F 29.73 in South 4.8 mph 6.0 mph 90 % 0.00 in
22:24 35.2 °F 32.6 °F 29.73 in South 2.3 mph 4.6 mph 90 % 0.00 in
22:29 35.2 °F 32.6 °F 29.73 in South 2.1 mph 3.5 mph 90 % 0.00 in
22:34 35.2 °F 32.6 °F 29.74 in South 3.4 mph 5.8 mph 90 % 0.00 in
22:39 35.2 °F 32.6 °F 29.73 in South 2.1 mph 4.0 mph 90 % 0.00 in
22:44 35.3 °F 32.7 °F 29.73 in South 3.8 mph 4.6 mph 90 % 0.00 in
22:49 35.3 °F 32.7 °F 29.73 in South 1.5 mph 5.8 mph 90 % 0.00 in
22:54 35.3 °F 32.7 °F 29.72 in South 3.7 mph 4.6 mph 90 % 0.00 in
22:59 35.3 °F 32.7 °F 29.72 in SSW 2.6 mph 5.0 mph 90 % 0.00 in
23:04 35.3 °F 32.7 °F 29.72 in South 3.4 mph 6.0 mph 90 % 0.00 in
23:09 35.3 °F 32.7 °F 29.72 in SSW 3.1 mph 6.9 mph 90 % 0.00 in
23:14 35.3 °F 32.7 °F 29.72 in South 2.8 mph 4.6 mph 90 % 0.00 in
23:19 35.3 °F 32.7 °F 29.72 in SW 3.5 mph 5.8 mph 90 % 0.00 in
23:24 35.3 °F 32.7 °F 29.71 in South 2.6 mph 4.6 mph 90 % 0.00 in
23:29 35.3 °F 32.7 °F 29.71 in South 2.5 mph 5.8 mph 90 % 0.00 in
23:34 35.3 °F 32.7 °F 29.71 in SW 2.7 mph 4.6 mph 90 % 0.00 in
23:39 35.3 °F 32.7 °F 29.71 in SSW 3.9 mph 6.9 mph 90 % 0.00 in
23:44 35.3 °F 32.7 °F 29.70 in SSW 2.1 mph 3.5 mph 90 % 0.00 in
23:49 35.3 °F 32.7 °F 29.70 in SSW 2.6 mph 4.6 mph 90 % 0.00 in
23:54 35.4 °F 32.8 °F 29.70 in South 4.0 mph 8.0 mph 90 % 0.00 in
Crab Meadow Weather
Compliments of Weather Underground - 3 mb

Script developed by  Jim McMurry - jmcmurry@mwt.net Adapted for the template by  Wim van der Kuil - Leuven-Template.eu

Recycling: In 2006, a record 53.4 percent of the paper consumed in the U.S. was recovered for recycling. Americans recovered an extraordinary 53.5 million tons, averaging 360 pounds per person.